星链-37367(STARLINK-37367)

导读

STARLINK-37367(NORAD编号68971)是美国SpaceX公司星链(Starlink)低轨卫星互联网星座的一员,属于Starlink V2 mini卫星系列。 该卫星由猎鹰9号火箭发射送入近地轨道,作为星链网络的空间节点,承担着为全球用户提供高带宽、低延迟互联网接入服务的功能,是星链星座逐步组网完成全球覆盖计划的组成部分,星链星座在民用通信之外,也具备潜在的军事应用价值。

Basic Information
目录编号:
68971
目录名称:
STARLINK-37367
国际标识:
2026-099W
轨道中心:
EARTH
卫星名称:
星链-37367
卫星全名:
星链-37367(STARLINK-37367)
卫星状态:
在轨 (已飞行135 天)
发射日期:
2026-05-01 UTC
国别 :
美国 (US)
星等 :
--
This satellite is enrolled in the Space Conjunction Data Service (SCDS) and the current flight risk assessment level is: No High Risk
Orbit Information
数据来源 国际轨道数据
星历时间: 2026-09-13T07:40:45+0800
12小时前
查看轨道信息
半长轴: 6840.84km
偏心率: 0.0001142
轨道倾角: 53.158°
近地点辐角 89.729°
升交点赤经 110.722°
平近点角 270.384°
近地点: 461.921km
远地点: 463.485km
周期: 93.848分钟
每日圈数: 15.344002
Detailed Information
固有亮度:
5
最大亮度:
2.5
卫星平台:
Starlink V1.0
覆盖范围:
全球
运营商:
太空探索技术公司
运营商所在国:
美国
制造商(研发单位):
太空探索技术公司
制造商所在国:
美国
使用方式:
暂无
Satellite Introduction
Starlink 计划是 SpaceX 推出的全球卫星互联网项目,通过发射低轨道卫星,为全球尤其是偏远地区提供高速、低延迟的互联网服务。自 2019 年起,Starlink 已部署数千颗卫星,旨在缩小全球数字鸿沟,推动互联网普及。该项目还为军事、航空等行业提供通信支持,带来广泛经济效益。
2D Orbit Map
3D Orbit Map
Orbit Altitude Analysis Chart
Orbit Inclination Analysis Chart
Orbit Comprehensive Analysis Chart
View Comprehensive Chart
Conjunction Data List
Event ID Objects TCA Miss Dist (km) Collision Risk Probability Collision Risk Index (CRI) Action
CDM_260914-190402-612106-897121
CZ-4 DEB (26121)
2026-09-14T
19:04:50+0000
1.783 km
极远距离
3.321921E-6 低风险 0.45
CDM_260914-092606-415506-897121
2026-09-14T
09:26:56+0000
2.095 km
极远距离
2.522715E-6 低风险 0.43
CDM_260915-152405-785206-897121
2026-09-15T
15:24:27+0000
1.492 km
极远距离
2.077015E-6 低风险 0.41
CDM_260915-130305-785206-897121
2026-09-15T
13:03:45+0000
1.820 km
极远距离
1.200144E-6 低风险 0.37
CDM_260913-232105-269406-897121
2026-09-13T
23:21:44+0000
2.956 km
极远距离
1.054439E-6 低风险 0.35
CDM_260913-074705-328306-897121
2026-09-13T
07:47:58+0000
2.664 km
极远距离
9.617175E-7 极低风险 0.35
CDM_260915-143705-785206-897121
2026-09-15T
14:37:33+0000
2.675 km
极远距离
5.729624E-7 极低风险 0.3
Miss Distance Evolution Trend with All Objects
Collision Probability Evolution Trend with All Objects